Location: Limoges
(45.8500°N, 1.2500°E)
Time: 00:34:10
(UTC+02:00)

ISS - Visible Passes

Search period start: 25 September 2022 00:00
Search period end: 05 October 2022 00:00
Orbit: 414 x 417 km, 51.6° (Epoch: 24 September)

Date Brightness Start Highest point End Pass type
(mag) Time Alt. Az. Time Alt. Az. Time Alt. Az.
25 Sep -2.2 20:32:11 10° WNW 20:35:12 29° N 20:38:12 10° ENE visible
25 Sep -1.9 22:09:13 10° NW 22:11:13 29° NNW 22:11:13 29° NNW visible
26 Sep -2.7 21:20:34 10° NW 21:23:41 34° NNE 21:24:23 31° NE visible
27 Sep -2.4 20:31:51 10° WNW 20:34:53 30° N 20:37:33 12° ENE visible
27 Sep -1.8 22:08:36 10° WNW 22:10:25 29° NW 22:10:25 29° NW visible
28 Sep -3.5 21:19:57 10° WNW 21:23:15 53° NNE 21:23:36 50° NE visible
29 Sep -3.0 20:31:16 10° NW 20:34:29 40° NNE 20:36:48 16° E visible
29 Sep -1.5 22:08:00 10° WNW 22:09:41 25° W 22:09:41 25° W visible
30 Sep -3.9 21:19:14 10° WNW 21:22:36 78° SSW 21:22:55 69° SSE visible
01 Oct -3.7 20:30:30 10° WNW 20:33:52 70° NNE 20:36:12 18° ESE visible
01 Oct -1.1 22:07:45 10° W 22:09:05 17° WSW 22:09:05 17° WSW visible
02 Oct -2.4 21:18:40 10° WNW 21:21:43 33° SW 21:22:27 29° S visible
03 Oct -3.1 20:29:45 10° WNW 20:33:03 53° SW 20:35:54 13° SE visible
04 Oct -1.0 21:18:45 10° W 21:20:34 14° SW 21:22:21 10° SSW visible
